1998-067UD

Last updated on Mon Aug 15 2022 00:02:04 GMT+0000 (Coordinated Universal Time)

1 53464U 98067UD 22226.73602287 .00035547 00000+0 60268-3 0 9999 2 53464 51.6409 46.5226 0007902 141.9590 283.7101 15.51135793 373
UTC large
Height (km)
Speed (km/s)
/
Latitude / Longitude
Inclination (degrees)
Orbital Period (minutes)
Azimuth
Elevation
Range (km)
Doppler Factor

Next 0 passes for location: London (51.5072 / 0.1276)

Sorry there are no passes over London.